[[{"header":{"parameterUnit":"m.s-1","parameterCategory":1,"la1":30.2992,"la2":30.254,"lo1":-89.0895,"lo2":-89.0443,"dy":0.0025,"dx":0.0025,"nx":19,"ny":19,"refTime":"2026-04-30T03:00:00:Z","depth":0,"parameterNumber":2,"parameterNumberName":"U-component_of_WINDS"},"data":[0,0,0,1.1734,1.174,1.2008,1.2009,1.2359,1.2362,0,0,0,0,0,0,0,0,0,0,0,1.1653,1.1655,1.1733,1.174,1.2008,1.2009,1.2358,1.2362,0,0,0,0,0,0,0,0,0,0,0,1.1652,1.1655,1.1657,1.1741,1.2008,1.2009,1.2357,1.2154,0,0,0,0,0,0,0,0,0,0,1.1893,1.1816,1.1654,1.1658,1.1743,1.2007,1.2009,1.2144,1.2167,1.2238,0,1.2296,0,1.2334,1.2385,1.2386,0,0,0,1.1743,1.1797,1.187,1.1658,1.1745,1.2007,1.1888,1.2157,1.2182,1.2268,1.2302,1.2314,1.234,1.2387,1.2389,1.278,1.2781,0,0,1.1728,1.1702,1.1852,1.1886,1.1839,1.1879,1.1896,1.2172,1.2209,1.2303,1.2323,1.2346,1.239,1.2392,1.2778,1.278,0,0,0,1.1684,1.1692,1.1758,1.1872,1.1919,1.1887,1.1906,1.2197,1.222,1.2326,1.235,1.2392,1.2396,1.2776,1.2779,1.2835,0,0,0,1.1675,1.1665,1.1751,1.1738,1.1914,1.206,1.1925,1.2201,1.2233,1.2348,1.2392,1.2399,1.2774,1.2778,1.2829,1.2866,0,0,0,1.1636,1.1661,1.1699,1.1736,1.1849,1.2056,1.2096,1.2209,1.2248,1.2387,1.24,1.2773,1.2777,1.2824,1.2858,1.2961,0,0,0,1.1589,1.1747,1.1699,1.1886,1.1847,1.2087,1.2094,1.2276,1.2402,1.2394,1.2775,1.2778,1.2823,1.2853,1.2955,1.3042,1.3075,0,0,1.1775,1.1769,1.1881,1.1845,1.2086,1.2048,1.23,1.2443,1.2484,1.268,1.269,1.2831,1.2858,1.296,1.3271,1.3297,0,0,0,1.1931,1.2011,1.2081,1.2196,1.2306,1.2405,1.2511,1.2564,1.2731,1.2577,1.2897,1.2914,1.2975,1.3017,1.304,1.3094,1.2797,1.2796,1.2796,1.2158,1.2196,1.2384,1.2455,1.2569,1.2675,1.2772,1.2863,1.2873,1.2948,1.3006,1.319,1.3239,1.3255,1.3312,1.3055,1.3056,1.3056,1.3056,1.2434,1.2553,1.2559,1.2742,1.2785,1.2942,1.3053,1.3054,1.321,1.3149,1.3205,1.3134,1.3283,1.3334,1.3061,1.306,1.3059,1.3059,1.3058,1.2586,1.265,1.2709,1.288,1.3009,1.3078,1.3226,1.326,1.3294,1.3349,1.3416,1.3415,1.3419,1.3378,1.3379,1.338,1.338,1.3381,1.3381,1.2721,1.2785,1.2903,1.3031,1.311,1.3219,1.3329,1.341,1.3508,1.3522,1.3523,1.3526,1.3289,1.3228,1.3391,1.3389,1.3388,1.3387,1.3386,1.2986,1.2931,1.3112,1.3191,1.3346,1.3472,1.3513,1.3675,1.3747,1.382,1.3811,1.3629,1.3628,1.3611,1.3561,1.38,1.38,1.38,1.38,1.3115,1.3116,1.3309,1.3432,1.3558,1.3613,1.3822,1.391,1.3994,1.4042,1.4012,1.395,1.393,1.3941,1.3916,1.387,1.4183,1.4183,1.4184,1.3281,1.3295,1.3463,1.3538,1.3662,1.3769,1.3967,1.4114,1.4198,1.42,1.4081,1.4064,1.3963,1.3928,1.3927,1.3888,1.3805,0,0]},{"header":{"parameterUnit":"m.s-1","parameterCategory":1,"la1":30.2992,"la2":30.254,"lo1":-89.0895,"lo2":-89.0443,"dy":0.0025,"dx":0.0025,"nx":19,"ny":19,"refTime":"2026-04-30T03:00:00:Z","depth":0,"parameterNumber":3,"parameterNumberName":"V-component_of_WINDS"},"data":[0,0,0,-1.0712,-1.0711,-1.0672,-1.0671,-1.0607,-1.0606,0,0,0,0,0,0,0,0,0,0,0,-1.0718,-1.0717,-1.0712,-1.0711,-1.0672,-1.0671,-1.0607,-1.0606,0,0,0,0,0,0,0,0,0,0,0,-1.0718,-1.0717,-1.0716,-1.071,-1.0672,-1.0671,-1.0607,-1.0641,0,0,0,0,0,0,0,0,0,0,-1.0681,-1.0682,-1.0717,-1.0716,-1.071,-1.0672,-1.0671,-1.0643,-1.0639,-1.0619,0,-1.0603,0,-1.0604,-1.0601,-1.0601,0,0,0,-1.0714,-1.0685,-1.068,-1.0716,-1.071,-1.0672,-1.069,-1.0641,-1.0636,-1.0614,-1.0602,-1.06,-1.0603,-1.0601,-1.06,-1.0481,-1.048,0,0,-1.0716,-1.0707,-1.0683,-1.0677,-1.0686,-1.0691,-1.0689,-1.0638,-1.0624,-1.0602,-1.0599,-1.0602,-1.06,-1.06,-1.0481,-1.048,0,0,0,-1.072,-1.0708,-1.0705,-1.0679,-1.0674,-1.069,-1.0687,-1.0626,-1.0626,-1.0598,-1.0601,-1.06,-1.0599,-1.0482,-1.0481,-1.0435,0,0,0,-1.0722,-1.0711,-1.0705,-1.0699,-1.0674,-1.065,-1.0676,-1.0629,-1.0624,-1.0601,-1.06,-1.0598,-1.0483,-1.0482,-1.0438,-1.0414,0,0,0,-1.0722,-1.0711,-1.0703,-1.0699,-1.0682,-1.0651,-1.0648,-1.0628,-1.0625,-1.0601,-1.0598,-1.0484,-1.0482,-1.0441,-1.0419,-1.0378,0,0,0,-1.0719,-1.0664,-1.0703,-1.0641,-1.0682,-1.0625,-1.0649,-1.0606,-1.058,-1.0599,-1.0483,-1.0481,-1.0442,-1.0422,-1.0381,-1.034,-1.0324,0,0,-1.0644,-1.0654,-1.0619,-1.0653,-1.0586,-1.0631,-1.0557,-1.0541,-1.0546,-1.0501,-1.0499,-1.0437,-1.0419,-1.0379,-1.0237,-1.0223,0,0,0,-1.0591,-1.0566,-1.055,-1.0526,-1.0514,-1.05,-1.0497,-1.049,-1.0453,-1.0523,-1.0413,-1.0403,-1.0379,-1.036,-1.0349,-1.0327,-1.0473,-1.0473,-1.0473,-1.0469,-1.0481,-1.0422,-1.0427,-1.0403,-1.04,-1.038,-1.0371,-1.0389,-1.0362,-1.0348,-1.0261,-1.0239,-1.023,-1.0208,-1.033,-1.033,-1.033,-1.033,-1.0357,-1.0321,-1.0347,-1.0299,-1.0309,-1.0268,-1.0262,-1.0275,-1.0236,-1.0274,-1.0253,-1.0291,-1.0215,-1.0196,-1.0326,-1.0327,-1.0327,-1.0328,-1.0328,-1.0276,-1.0261,-1.0256,-1.022,-1.0191,-1.0198,-1.0159,-1.0171,-1.0181,-1.0161,-1.0145,-1.0146,-1.0145,-1.0153,-1.0153,-1.0153,-1.0153,-1.0152,-1.0152,-1.0193,-1.0189,-1.0156,-1.0138,-1.0123,-1.0103,-1.0099,-1.0083,-1.0068,-1.0079,-1.0079,-1.0096,-1.0208,-1.0233,-1.0147,-1.0148,-1.0149,-1.0149,-1.015,-1.0071,-1.01,-1.0049,-1.0034,-1.0012,-0.998,-0.9996,-0.9962,-0.9951,-0.993,-0.9952,-1.0034,-1.0044,-1.0054,-1.0075,-0.9953,-0.9953,-0.9953,-0.9953,-1.0,-1.0008,-0.9957,-0.9931,-0.9907,-0.9916,-0.9853,-0.9848,-0.9847,-0.9839,-0.9859,-0.9889,-0.9898,-0.9903,-0.9916,-0.9935,-0.9781,-0.9781,-0.9781,-0.9924,-0.9929,-0.9875,-0.9877,-0.9861,-0.9844,-0.9785,-0.9751,-0.9756,-0.9774,-0.9833,-0.984,-0.9889,-0.9905,-0.9922,-0.9941,-0.9977,0,0]}]]